Weather History for Santiago, Dominican Republic

Change the Weather History Date:

Thursday, November 22, 2012

  Actual Average Record
Temperature  
Mean Temperature 76 °F -  
Max Temperature 81 °F 85 °F 91 °F (2002)
Min Temperature 71 °F 67 °F 64 °F (2007)
Cooling Degree Days 11    
Growing Degree Days 26 (Base 50)    
Moisture  
Dew Point 71 °F    
Average Humidity 86    
Maximum Humidity 100    
Minimum Humidity 67    
Precipitation  
Precipitation 0.00 in 0.12 in - ()
Sea Level Pressure  
Sea Level Pressure 29.90 in    
Wind  
Wind Speed 4 mph ()    
Max Wind Speed 12 mph    
Max Gust Speed -    
Visibility 6.1 miles    
Events Rain    
Averages and records for this station are not official NWS values.
T = Trace of Precipitation, MM = Missing Value Source: Averaged Metar Reports

Daily Weather History Graph

Daily Weather History Graph

Search for Another Location

Airport:

Trip Planner

Search our weather history database for the weather conditions in past years. The results will help you decide how hot, cold, wet, or windy it might be!

Date:

Astronomy

Nov. 22, 2012 Rise Set
Actual Time 6:54 AM AST 6:02 PM AST
Civil Twilight 6:31 AM AST 6:25 PM AST
Nautical Twilight 6:04 AM AST 6:52 PM AST
Astronomical Twilight 5:37 AM AST 7:19 PM AST
Moon 2:10 PM AST (11/22) 1:52 AM AST (11/22)
Length of Visible Light 11h 54m
Length of Day
11h 07m
Waxing Gibbous, 71% of the Moon is Illuminated
Nov 22
Waxing Gibbous
Nov 28
Full
Dec 6
Last Quarter
Dec 13
New
Dec 20
First Quarter

Hourly Weather History & Observations

Time (AST) Temp. Heat Index Dew Point Humidity Pressure Visibility Wind Dir Wind Speed Gust Speed Precip Events Conditions
12:00 AM 73.4 °F - 71.6 °F 94% 29.89 in 6.2 mi Calm Calm - N/A   Mostly Cloudy
1:00 AM 73.4 °F - 71.6 °F 94% 29.89 in 5.0 mi West 4.6 mph - N/A Rain Light Rain
2:00 AM 73.4 °F - 71.6 °F 94% 29.86 in 6.2 mi Variable 2.3 mph - N/A   Overcast
3:00 AM 73.4 °F - 71.6 °F 94% 29.86 in 6.2 mi Variable 2.3 mph - N/A   Overcast
4:00 AM 73.4 °F - 71.6 °F 94% 29.86 in 6.2 mi Calm Calm - N/A   Overcast
5:00 AM 73.4 °F - 71.6 °F 94% 29.83 in 6.2 mi Variable 2.3 mph - N/A   Mostly Cloudy
6:00 AM 71.6 °F - 71.6 °F 100% 29.86 in 6.2 mi Variable 2.3 mph - N/A   Mostly Cloudy
7:00 AM 71.6 °F - 71.6 °F 100% 29.86 in 6.2 mi Variable 2.3 mph - N/A   Scattered Clouds
8:00 AM 73 °F - 71 °F 90% 29.91 in 6 mi 2.2 mph - -   Haze
8:00 AM 73.4 °F - 71.6 °F 94% 29.89 in 6.2 mi Variable 2.3 mph - N/A   Mostly Cloudy
9:00 AM 75.2 °F - 73.4 °F 94% 29.92 in 6.2 mi Calm Calm - N/A   Mostly Cloudy
10:00 AM 77.0 °F - 73.4 °F 89% 29.95 in 6.2 mi West 4.6 mph - N/A   Mostly Cloudy
11:00 AM 80 °F - 71 °F 67% 29.94 in 6 mi WNW 6.7 mph - -   Haze
11:00 AM 78.8 °F - 71.6 °F 78% 29.92 in 6.2 mi WNW 6.9 mph - N/A   Mostly Cloudy
12:00 PM 80.6 °F 84.6 °F 71.6 °F 74% 29.92 in 6.2 mi West 5.8 mph - N/A   Mostly Cloudy
1:00 PM 78.8 °F - 71.6 °F 78% 29.89 in 6.2 mi West 9.2 mph - N/A   Mostly Cloudy
2:00 PM 79 °F - 71 °F 72% 29.89 in 6 mi WNW 11.2 mph - -   Haze
2:00 PM 78.8 °F - 71.6 °F 78% 29.89 in 6.2 mi WNW 10.4 mph - N/A   Mostly Cloudy
3:00 PM 78.8 °F - 71.6 °F 78% 29.86 in 6.2 mi West 10.4 mph - N/A   Overcast
4:00 PM 77.0 °F - 71.6 °F 83% 29.86 in 6.2 mi WNW 9.2 mph - N/A   Overcast
5:00 PM 77 °F - 69 °F 71% 29.88 in 6 mi WNW 11.2 mph - -   Haze
5:00 PM 77.0 °F - 69.8 °F 78% 29.86 in 6.2 mi WNW 11.5 mph - N/A   Overcast
6:00 PM 75.2 °F - 69.8 °F 83% 29.89 in 6.2 mi WNW 10.4 mph - N/A   Mostly Cloudy
7:00 PM 75.2 °F - 69.8 °F 83% 29.89 in 6.2 mi WNW 6.9 mph - N/A   Overcast
8:00 PM 73 °F - 66 °F 72% 29.94 in 6 mi WNW 11.2 mph - -   Haze
8:00 PM 73.4 °F - 66.2 °F 78% 29.92 in 6.2 mi WNW 10.4 mph - N/A   Overcast
9:00 PM 73.4 °F - 69.8 °F 88% 29.92 in 6.2 mi WNW 8.1 mph - N/A   Overcast
10:00 PM 71.6 °F - 69.8 °F 94% 29.95 in 6.2 mi WNW 8.1 mph - N/A   Overcast
11:00 PM 72 °F - 71 °F 94% 29.97 in 6 mi NW 4.5 mph - -   Haze
11:00 PM 71.6 °F - 69.8 °F 94% 29.95 in 6.2 mi NW 4.6 mph - N/A   Overcast